{"data":{"norad_id":64707,"intl_designator":"2025-142M","name":"STARLINK-34316","alt_names":[],"object_type":"PAYLOAD","status":"ACTIVE","operator":null,"country":"US","launch_date":"2025-06-28","launch_site_code":"AFWTR","launch_vehicle":null,"mission":null,"orbit_class":"UNKNOWN","rcs_meters":null,"size_class":null,"mass_kg":null,"dimensions":null,"purposes":["comms"],"wikipedia_slug":null,"has_3d_model":false,"image_url":null,"decayed_at":null,"tle_current":{"epoch":"2026-05-25T05:00:22.545792Z","epoch_age_seconds":60169,"freshness":"FRESH","line1":"1 64707U 25142M   26145.20859428  .00002797  00000+0  24211-3 0  9991","line2":"2 64707  69.9999 121.4810 0004375 261.6834  98.3829 14.98334817 51118","mean_motion":14.98334817,"eccentricity":0.0004375,"inclination_deg":69.9999,"raan_deg":121.481,"arg_perigee_deg":261.6834,"mean_anomaly_deg":98.3829,"bstar":0.00024211,"rev_number":5111,"period_min":96.106690151084,"perigee_km":569.00029193645,"apogee_km":575.08169768191,"semimajor_km":6950.1779948092,"source":"CELESTRAK","updated_at":"2026-05-25T13:38:20.513637Z"}}}